Volver al catálogo

SL-8 DEB

ActivoLEO
NORAD 5225·DEBRIS·🇷🇺 Russia

Lanzado Dec 2, 1970 desde Plesetsk Cosmodrome

Loading…

Próximos Pases (próximas 24 horas)

TLE

ActualizadoSource: Space-Track

Época: Sep 13, 2026, 06:51 UTC

1 05225U 70102D   26256.28596605  .00000278  00000-0  23411-3 0  9997
2 05225  74.0248 331.1840 0018273 264.8314 154.6860 13.92431269819345

Sigue SL-8 DEB en tiempo real con AllMySat

Download on the App Store